Tracking 25701 objects as of 3-Jul-2022
HD Live streaming from Space Station
objects crossing your sky now

FENGYUN 1C DEB

Track FENGYUN 1C DEB now!
10-day predictions


NORAD ID: 31820
Int'l Code: 1999-025CHJ
Perigee: 534.8 km
Apogee: 891.1 km
Inclination: 99.0 °
Period: 98.9 minutes
Semi major axis: 7083 km
RCS: 0.0132 m2 (small)
Launch date: May 10, 1999
Source: People's Republic of China (PRC)
Launch site: Taiyaun Space Center, China (TSC)

Note: This is SATELLITE DEBRIS
aabbcc
Your satellite tracking list
Your tracking list is empty




NASA's NSSDC Master Catalog

Two Line Element Set (TLE):
1 31820U 99025CHJ 22182.03718182  .00001086  00000-0  17121-3 0  9994
2 31820  98.9855 215.8669 0251484 325.6865  32.8301 14.56088927797376
Source of the keplerian elements: AFSPC